Regional Weather Roundup
Issued by NWS

Home | Current Version | Previous Version | Text Only | Print | Product List | Glossary On
Versions: 1 2 3 4 5 6 7 8 9 10 11 12 13 14 15 16 17 18 19 20 21 22 23 24 25 26 27 28 29 30 31 32 33 34 35 36 37 38 39 40 41 42 43 44 45 46 47 48 49 50
000
ASUS45 KPSR 261610
RWRAZ

ARIZONA HOURLY REGIONAL WEATHER ROUNDUP
NATIONAL WEATHER SERVICE PHOENIX AZ
900 AM MST MON SEP 26 2016

NOTE: FAIR INDICATES FEW OR NO CLOUDS BELOW 12,000 FEET WITH NO
SIGNIFICANT WEATHER AND/OR OBSTRUCTIONS TO VISIBILITY.

AZZ001>003-036-261700-
NORTHWEST ARIZONA

CITY           SKY/WX    TMP DP  RH WIND       PRES   REMARKS
BULLHEAD CITY  SUNNY     82  39  21 N24       30.09R
KINGMAN        SUNNY     75  33  21 CALM      30.25S
$$

AZZ004>008-015-016-018-261700-
NORTH CENTRAL ARIZONA

CITY           SKY/WX    TMP DP  RH WIND       PRES   REMARKS
GRAND CANYON   SUNNY     62  35  36 E12G20    30.47S
PRESCOTT       MOSUNNY   66  39  37 CALM      30.34S
FLAGSTAFF      SUNNY     57  36  45 NE12      30.47R
PAYSON         MOSUNNY   68  36  30 E9G20     30.34S
PAGE           SUNNY     65  33  30 CALM      30.40R
$$

AZZ009>014-017-261700-
NORTHEAST ARIZONA

CITY           SKY/WX    TMP DP  RH WIND       PRES   REMARKS
WINSLOW        MOSUNNY   65  36  34 NE5       30.40S
SAINT JOHNS    PTSUNNY   63  36  36 E16       30.41S
WINDOW ROCK    SUNNY     61  34  36 VRB6      30.48F
SHOW LOW       PTSUNNY   57  32  38 E17G26    30.41S
$$

AZZ023-261700-
GREATER PHOENIX AREA

CITY           SKY/WX    TMP DP  RH WIND       PRES   REMARKS
PHOENIX        CLOUDY    86  50  28 SE10      30.06R
BUCKEYE        PTSUNNY   82  46  28 E13       30.08R
GLENDALE       CLOUDY    86  50  28 CALM      30.09R
LUKE AFB       CLOUDY    86  43  21 SE6       30.06S
DEER VALLEY    CLOUDY    84  41  21 E6        30.09R
SCOTTSDALE     CLOUDY    84  47  27 E6        30.11R
MESA-FALCON    PTSUNNY  N/A N/A N/A NE6       30.06R
MESA-GATEWAY   PTSUNNY   82  50  32 SE6       30.10R
CHANDLER       MOSUNNY   82  52  34 E12       30.08R
$$

AZZ027-028-261700-
SOUTHWEST MARICOPA COUNTY AND PINAL COUNTY

CITY           SKY/WX    TMP DP  RH WIND       PRES   REMARKS
CASA GRANDE    CLOUDY    82  46  28 E12       30.11R
GILA BEND      PTSUNNY   84  49  29 E12       30.03R
$$

AZZ503-504-507>509-261700-
SOUTHEAST ARIZONA

CITY           SKY/WX    TMP DP  RH WIND       PRES   REMARKS
TUCSON         CLOUDY    71  51  49 E7        30.16R
DAVIS-MONTHAN  CLOUDY    70  52  52 E17       30.15R
RYAN FIELD     MOSUNNY   70  54  56 SE9       30.14F
NOGALES        LGT RAIN  60  50  69 NE12      30.20R
SIERRA VISTA   LGT RAIN  54  51  87 S13       30.30R
DOUGLAS        RAIN      54  51  90 SE5       30.28R FOG
SAFFORD        LGT RAIN  67  53  61 S10       30.24R
$$

AZZ020-021-025-026-031-261700-
SOUTHWEST ARIZONA

CITY           SKY/WX    TMP DP  RH WIND       PRES   REMARKS
YUMA           PTSUNNY   83  39  21 NE12      29.97R
$$

CAZ031-033-041-043-047-048-061-261700-
SOUTHERN CALIFORNIA

CITY           SKY/WX    TMP DP  RH WIND       PRES   REMARKS
DOWNTOWN L.A.  SUNNY     84  34  16 NE3       29.94S
L.A. AIRPORT   MOSUNNY   87  27  11 E3        29.95R
SAN DIEGO      MOSUNNY   75  47  36 VRB3      29.94R
BURBANK        SUNNY     80  35  19 CALM      29.98S
ONTARIO        MOSUNNY   83  31  15 E3        30.00S
RIVERSIDE      SUNNY     80  37  21 CALM      30.00S
PALM SPRINGS   MOSUNNY   89  39  17 SW5       30.01R
EL CENTRO NAS  MOSUNNY   88  45  22 N6        29.97R
IMPERIAL       SUNNY     88  50  27 N6        29.95R
BLYTHE         SUNNY     83  41  22 CALM      30.02R
NEEDLES        SUNNY     86  38  18 N16       30.10R
$$

NVZ020-UTZ003-261700-
SOUTHERN NEVADA-UTAH

CITY           SKY/WX    TMP DP  RH WIND       PRES   REMARKS
LAS VEGAS      MOSUNNY   77  28  16 CALM      30.22R
SALT LAKE CITY SUNNY     58  44  60 SE6       30.42S
$$

NMZ009-TXZ055-261700-
NEW MEXICO-WEST TEXAS

CITY           SKY/WX    TMP DP  RH WIND       PRES   REMARKS
ALBUQUERQUE    PTSUNNY   59  34  39 N7        30.47S
EL PASO        CLOUDY    58  46  64 SE7       30.35R
$$


........................KEY........................
SKY/WX - SKY CONDITION/WEATHER
TMP    - TEMPERATURE IN FAHRENHEIT
DP     - DEW POINT IN FAHRENHEIT
RH     - RELATIVE HUMIDITY IN PERCENT
WIND   - DIRECTION AND SPEED IN MILES PER HOUR (MPH)
VRB    - VARIABLE WIND DIRECTION
PRES   - MEAN SEA LEVEL PRESSURE IN INCHES OF MERCURY
         F - FALLING PRESSURE   R - RISING PRESSURE
         S - STEADY PRESSURE
VSB    - VISIBILITY IN MILES
HX     - HEAT INDEX IN FAHRENHEIT
WCI    - WIND CHILL INDEX IN FAHRENHEIT
TC     - TEMPERATURE IN CELSIUS WHICH IS ALSO KNOWN AS
         TEMPERATURE IN CENTIGRADE
AFB    - AIR FORCE BASE
         LUKE AFB IS LUKE AIR FORCE BASE
         DAVIS-MONTHAN IS DAVIS-MONTHAN AIR FORCE BASE
NAS    - NAVAL AIR STATION
         EL CENTRO NAS IS EL CENTRO NAVAL AIR STATION
N/A    - NOT AVAILABLE




USA.gov is the U.S. government's official web portal to all federal, state and local government web resources and services.